Location: Earls Croome
(52.0667°N, 2.2000°W)
Time: 15:21:49
(UTC+00:00)

NOSS 3-4 (A) - Pass Details

Date: 17 November 2019
Orbit: 907 x 1306 km, 63.4° (Epoch: 02 December)

Event Time Altitude Azimuth Distance (km) Brightness Sun altitude
Exits shadow 04:41:05 36° 325° (NW) 1,641 4.4 -25.9°
Maximum altitude 04:44:07 72° 40° (NE) 1,174 3.9 -25.4°
Drops below altitude 10° 04:51:38 10° 125° (SE) 3,138 6.9 -24.3°
Sets 04:54:31 0° 127° (SE) 4,150 7.6 -23.8°
